[[{"header":{"parameterUnit":"m.s-1","parameterCategory":1,"la1":30.2991,"la2":30.254,"lo1":-89.0895,"lo2":-89.0444,"dy":0.0017,"dx":0.0017,"nx":28,"ny":28,"refTime":"2024-08-23T03:00:00:Z","depth":0,"parameterNumber":2,"parameterNumberName":"U-component_of_WINDS"},"data":[0,0,0,0,0,0,0,0,0,0,0,0,0,0,0,0,0,0,0,0,0,0,0,0,0,0,0,0,0,0,0,0,0,0,0,0,0,0,0,0,0,0,0,0,0,0,0,0,0,0,0,0,0,0,0,0,0,0,-5.4888,-5.4889,0,-5.4901,-5.4901,-5.4901,-5.4754,-5.475,-5.4746,-5.4743,-5.4754,-5.4758,-5.4762,0,0,0,0,0,0,0,0,0,0,0,0,0,-5.4736,-5.4739,-5.4888,-5.4889,-5.4889,-5.4901,-5.4901,-5.4901,-5.4755,-5.475,-5.4745,-5.4741,-5.4753,-5.4758,-5.4763,0,0,0,0,0,0,0,0,0,0,0,0,0,-5.4781,-5.474,-5.4888,-5.4817,-5.4811,-5.4901,-5.4901,-5.4901,-5.4756,-5.475,-5.4744,-5.4738,-5.4751,-5.4757,-5.4763,-5.4921,0,0,-5.4782,-5.4784,0,0,0,0,0,0,0,0,-5.4778,-5.4786,-5.4828,-5.4822,-5.4815,-5.482,-5.4851,-5.4908,-5.4758,-5.4777,-5.4742,-5.4735,-5.4781,-5.4784,-5.48,-5.4922,-5.4922,-5.4782,-5.4786,-5.4789,-5.479,0,0,0,0,0,0,0,-5.4775,-5.4785,-5.4893,-5.4828,-5.4821,-5.4784,-5.4784,-5.4861,-5.4813,-5.4775,-5.4764,-5.4768,-5.4776,-5.4794,-5.4799,-5.4923,-5.4782,-5.4788,-5.4791,-5.4794,-5.5174,-5.518,0,0,0,0,0,0,-5.4782,-5.4783,-5.4893,-5.4894,-5.4782,-5.4792,-5.4791,-5.4825,-5.4811,-5.4803,-5.4773,-5.4761,-5.4787,-5.4792,-5.4799,-5.4981,-5.4789,-5.4794,-5.4798,-5.5167,-5.5175,-5.5182,0,0,0,0,0,0,-5.4779,-5.4793,-5.4892,-5.4836,-5.4845,-5.4801,-5.4839,-5.4828,-5.4845,-5.481,-5.48,-5.48,-5.4782,-5.479,-5.4892,-5.4979,-5.4797,-5.4803,-5.516,-5.517,-5.5178,-5.5349,0,0,0,0,0,0,-5.4776,-5.4793,-5.4853,-5.4838,-5.4849,-5.4986,-5.4845,-5.4833,-5.4857,-5.4841,-5.4833,-5.4826,-5.4778,-5.4883,-5.4898,-5.4984,-5.4807,-5.5151,-5.5164,-5.5175,-5.5335,-5.5363,-5.5387,0,0,0,0,0,-5.4771,-5.4901,-5.4857,-5.4871,-5.4923,-5.4991,-5.4997,-5.494,-5.4864,-5.4924,-5.4901,-5.4826,-5.4969,-5.4895,-5.491,-5.5,-5.5146,-5.516,-5.5175,-5.5323,-5.5357,-5.5386,0,0,0,0,0,0,-5.4926,-5.4897,-5.4848,-5.4978,-5.4988,-5.4966,-5.5039,-5.4979,-5.501,-5.4994,-5.4922,-5.4922,-5.5035,-5.5028,-5.4946,-5.5152,-5.5043,-5.5062,-5.5151,-5.5184,-5.5209,-5.5207,-5.4812,0,0,0,0,0,-5.4976,-5.5034,-5.5006,-5.5122,-5.513,-5.5085,-5.5112,-5.5067,-5.5075,-5.5079,-5.5063,-5.5073,-5.5119,-5.5152,-5.5193,-5.5334,-5.5329,-5.5404,-5.543,-5.5451,-5.5467,-5.5539,-5.5571,-5.523,-5.5229,-5.5229,0,0,-5.5078,-5.507,-5.5111,-5.5153,-5.5156,-5.5217,-5.5089,-5.5159,-5.5203,-5.5089,-5.5183,-5.5173,-5.5179,-5.5301,-5.5354,-5.5298,-5.5561,-5.547,-5.5487,-5.5491,-5.5557,-5.559,-5.5619,-5.5239,-5.5238,-5.5236,0,0,-5.5295,-5.5296,-5.5392,-5.5398,-5.5404,-5.5373,-5.5397,-5.5385,-5.5373,-5.5467,-5.5382,-5.5434,-5.5516,-5.5523,-5.5538,-5.576,-5.5691,-5.5775,-5.591,-5.5981,-5.6008,-5.6032,-5.6108,-5.6137,-5.5792,-5.5792,-5.5792,0,-5.5421,-5.551,-5.5449,-5.5525,-5.5545,-5.5446,-5.5542,-5.5551,-5.557,-5.5586,-5.5525,-5.5625,-5.5623,-5.5744,-5.5798,-5.5815,-5.5838,-5.5774,-5.601,-5.6032,-5.6053,-5.6125,-5.6155,-5.5802,-5.5801,-5.58,-5.5799,0,-5.5664,-5.5727,-5.5804,-5.5826,-5.5855,-5.5941,-5.5892,-5.5929,-5.5883,-5.5858,-5.5955,-5.5949,-5.5986,-5.6012,-5.5968,-5.6127,-5.6093,-5.6022,-5.5911,-5.6097,-5.6163,-5.6191,-5.5816,-5.5813,-5.581,-5.5807,0,0,-5.5977,-5.5964,-5.5993,-5.6001,-5.6001,-5.6048,-5.613,-5.6167,-5.6199,-5.6217,-5.6282,-5.6355,-5.6289,-5.6306,-5.6261,-5.6325,-5.6498,-5.6246,-5.6245,-5.629,-5.6671,-5.6722,-5.6755,-5.6454,-5.6459,-5.6463,-5.667,0,-5.6186,-5.6323,-5.6271,-5.6412,-5.6469,-5.6376,-5.6446,-5.6454,-5.6434,-5.6479,-5.6456,-5.6508,-5.6419,-5.6428,-5.6487,-5.6465,-5.6573,-5.6449,-5.6512,-5.6515,-5.651,-5.679,-5.6844,-5.7039,-5.6696,-5.67,-5.6703,0,-5.6447,-5.6475,-5.6622,-5.6612,-5.6634,-5.6698,-5.6727,-5.6772,-5.6779,-5.6759,-5.6779,-5.6721,-5.6799,-5.6692,-5.6797,-5.6715,-5.6738,-5.6731,-5.6737,-5.6738,-5.6618,-5.6796,-5.71,-5.7128,-5.6744,-5.6741,-5.6738,0,-5.6657,-5.6732,-5.6829,-5.6839,-5.683,-5.6877,-5.6876,-5.6877,-5.6902,-5.6928,-5.6944,-5.6979,-5.6998,-5.7026,-5.6979,-5.6906,-5.7091,-5.698,-5.7075,-5.7077,-5.7116,-5.7113,-5.7425,-5.7137,-5.7136,-5.7136,-5.7135,0,-5.6893,-5.6986,-5.6923,-5.6982,-5.7083,-5.7023,-5.7125,-5.7113,-5.7115,-5.7169,-5.7093,-5.7146,-5.7081,-5.7129,-5.7093,-5.7184,-5.7194,-5.718,-5.7168,-5.7185,-5.7186,-5.7196,-5.718,-5.7144,-5.7142,-5.714,-5.7139,0,-5.7143,-5.7105,-5.7204,-5.7188,-5.7186,-5.7261,-5.7247,-5.7301,-5.7276,-5.7347,-5.736,-5.7321,-5.7372,-5.7329,-5.7379,-5.7354,-5.7476,-5.7447,-5.7473,-5.7464,-5.7561,-5.7551,-5.7887,-5.7927,-5.7617,-5.762,-5.7622,0,-5.7295,-5.7364,-5.7356,-5.7387,-5.7391,-5.7443,-5.7468,-5.7412,-5.7442,-5.7455,-5.7507,-5.7553,-5.7585,-5.7671,-5.7647,-5.7685,-5.7654,-5.7769,-5.7659,-5.7673,-5.7652,-5.7647,-5.7653,-5.7791,-5.7794,-5.7797,-5.78,0,-5.7567,-5.7545,-5.7585,-5.762,-5.7652,-5.7677,-5.7694,-5.7725,-5.7667,-5.7705,-5.7756,-5.7782,-5.7833,-5.7878,-5.7908,-5.7905,-5.7843,-5.7835,-5.7859,-5.7874,-5.7886,-5.7878,-5.7531,-5.7827,-5.7824,-5.7822,-5.7821,-5.782,-5.777,-5.7827,-5.783,-5.7877,-5.7885,-5.7904,-5.7953,-5.7935,-5.7977,-5.8014,-5.7979,-5.8041,-5.8046,-5.808,-5.8085,-5.8132,-5.8084,-5.8119,-5.8127,-5.8136,-5.8149,-5.7882,-5.8138,-5.8137,-5.8137,-5.8136,-5.8135,0,-5.8036,-5.8034,-5.8078,-5.8105,-5.8143,-5.8083,-5.8099,-5.8134,-5.819,-5.82,-5.8234,-5.8293,-5.8337,-5.8317,-5.8355,-5.8397,-5.8369,-5.8408,-5.8403,-5.8403,-5.8191,-5.8165,-5.843,-5.843,-5.843,-5.843,-5.843,-5.843,-5.8178,-5.827,-5.8249,-5.8344,-5.834,-5.8401,-5.8415,-5.8432,-5.8439,-5.8509,-5.8545,-5.8532,-5.853,-5.8567,-5.8604,-5.8597,-5.8613,-5.8663,-5.8645,-5.8447,-5.8418,-5.839,-5.8365,-5.8668,-5.8668,-5.8852,-5.8854,-5.8856]},{"header":{"parameterUnit":"m.s-1","parameterCategory":1,"la1":30.2991,"la2":30.254,"lo1":-89.0895,"lo2":-89.0444,"dy":0.0017,"dx":0.0017,"nx":28,"ny":28,"refTime":"2024-08-23T03:00:00:Z","depth":0,"parameterNumber":3,"parameterNumberName":"V-component_of_WINDS"},"data":[0,0,0,0,0,0,0,0,0,0,0,0,0,0,0,0,0,0,0,0,0,0,0,0,0,0,0,0,0,0,0,0,0,0,0,0,0,0,0,0,0,0,0,0,0,0,0,0,0,0,0,0,0,0,0,0,0,0,-0.4212,-0.4213,0,-0.4266,-0.4267,-0.4267,-0.4298,-0.4298,-0.4298,-0.4298,-0.4355,-0.4357,-0.4358,0,0,0,0,0,0,0,0,0,0,0,0,0,-0.4135,-0.4136,-0.4212,-0.4213,-0.4213,-0.4266,-0.4267,-0.4268,-0.4298,-0.4298,-0.4298,-0.4298,-0.4355,-0.4357,-0.4358,0,0,0,0,0,0,0,0,0,0,0,0,0,-0.4177,-0.4137,-0.4212,-0.4235,-0.4237,-0.4266,-0.4267,-0.4268,-0.4297,-0.4298,-0.4298,-0.4298,-0.4354,-0.4356,-0.4359,-0.437,0,0,-0.4365,-0.4366,0,0,0,0,0,0,0,0,-0.4174,-0.418,-0.4231,-0.4233,-0.4236,-0.4275,-0.4261,-0.4302,-0.4297,-0.4275,-0.4298,-0.4298,-0.4329,-0.4333,-0.4343,-0.4372,-0.4375,-0.4365,-0.4367,-0.4368,-0.4368,0,0,0,0,0,0,0,-0.4171,-0.4177,-0.4234,-0.4231,-0.4235,-0.4242,-0.4248,-0.4269,-0.43,-0.4277,-0.4279,-0.4285,-0.433,-0.4341,-0.4345,-0.4376,-0.4365,-0.4367,-0.4369,-0.437,-0.4415,-0.4415,0,0,0,0,0,0,-0.4165,-0.4175,-0.4232,-0.4235,-0.4205,-0.4244,-0.425,-0.4263,-0.43,-0.4306,-0.4285,-0.4286,-0.4337,-0.4342,-0.4347,-0.4361,-0.4368,-0.437,-0.4371,-0.4415,-0.4415,-0.4415,0,0,0,0,0,0,-0.4163,-0.417,-0.423,-0.4206,-0.4214,-0.4245,-0.4258,-0.4264,-0.4274,-0.4306,-0.4312,-0.429,-0.4337,-0.4344,-0.4363,-0.4364,-0.4371,-0.4373,-0.4415,-0.4415,-0.4415,-0.4391,0,0,0,0,0,0,-0.4161,-0.4169,-0.4173,-0.4205,-0.4215,-0.4245,-0.4258,-0.4265,-0.4278,-0.428,-0.4312,-0.4318,-0.4338,-0.436,-0.4365,-0.4367,-0.4374,-0.4416,-0.4415,-0.4415,-0.4392,-0.439,-0.4388,0,0,0,0,0,-0.4158,-0.4165,-0.4173,-0.418,-0.4221,-0.4245,-0.425,-0.4273,-0.4277,-0.4282,-0.4303,-0.4317,-0.4362,-0.4361,-0.4368,-0.437,-0.4416,-0.4415,-0.4415,-0.4393,-0.439,-0.4389,0,0,0,0,0,0,-0.4134,-0.417,-0.4179,-0.4197,-0.4218,-0.425,-0.4257,-0.427,-0.429,-0.4291,-0.4318,-0.4325,-0.4342,-0.4358,-0.4356,-0.4382,-0.4391,-0.4392,-0.4371,-0.4369,-0.4368,-0.4364,-0.4376,0,0,0,0,0,-0.413,-0.4146,-0.4177,-0.419,-0.4199,-0.4226,-0.4237,-0.4252,-0.4275,-0.4284,-0.4306,-0.4327,-0.4347,-0.4359,-0.4378,-0.4394,-0.4401,-0.4399,-0.4397,-0.4395,-0.4396,-0.4405,-0.4404,-0.4414,-0.4414,-0.4414,0,0,-0.4123,-0.4145,-0.4154,-0.4185,-0.4203,-0.4219,-0.4233,-0.425,-0.4262,-0.4287,-0.4306,-0.4323,-0.4349,-0.4366,-0.4375,-0.438,-0.4394,-0.4395,-0.4393,-0.4395,-0.4404,-0.4403,-0.4402,-0.4414,-0.4414,-0.4414,0,0,-0.4119,-0.4138,-0.415,-0.4166,-0.4192,-0.421,-0.4212,-0.4242,-0.4254,-0.4274,-0.4292,-0.4307,-0.4339,-0.4357,-0.437,-0.437,-0.4384,-0.4375,-0.4367,-0.4375,-0.4374,-0.4373,-0.4373,-0.4373,-0.4376,-0.4376,-0.4376,0,-0.4108,-0.4133,-0.4154,-0.4169,-0.4182,-0.4204,-0.4216,-0.4232,-0.4263,-0.4271,-0.4276,-0.4316,-0.4335,-0.4357,-0.4356,-0.4366,-0.437,-0.4372,-0.4372,-0.4372,-0.4372,-0.4372,-0.4371,-0.4375,-0.4375,-0.4375,-0.4375,0,-0.4117,-0.4134,-0.414,-0.4168,-0.4182,-0.4196,-0.4219,-0.4231,-0.4244,-0.426,-0.4279,-0.4303,-0.4327,-0.4333,-0.4346,-0.4355,-0.4358,-0.4367,-0.4376,-0.4369,-0.4369,-0.437,-0.4373,-0.4373,-0.4374,-0.4374,0,0,-0.4101,-0.414,-0.4142,-0.4154,-0.4183,-0.4196,-0.421,-0.4233,-0.4241,-0.4262,-0.4274,-0.43,-0.4308,-0.4323,-0.4338,-0.4345,-0.4343,-0.4354,-0.4355,-0.4351,-0.4354,-0.4347,-0.4346,-0.4352,-0.4352,-0.4352,-0.4351,0,-0.4102,-0.4127,-0.4146,-0.4165,-0.418,-0.4199,-0.4211,-0.423,-0.4246,-0.4261,-0.4279,-0.4296,-0.4306,-0.4315,-0.4322,-0.4341,-0.4344,-0.4342,-0.4364,-0.4364,-0.4357,-0.4347,-0.434,-0.4338,-0.4352,-0.4352,-0.4352,0,-0.4106,-0.4124,-0.4143,-0.4169,-0.4176,-0.4187,-0.4208,-0.4222,-0.4244,-0.4254,-0.4269,-0.4285,-0.43,-0.4307,-0.4328,-0.4327,-0.4336,-0.4347,-0.4347,-0.4351,-0.4358,-0.435,-0.4338,-0.4338,-0.4352,-0.4352,-0.4352,0,-0.4092,-0.4121,-0.4136,-0.4146,-0.4177,-0.4184,-0.4197,-0.4219,-0.423,-0.4249,-0.4256,-0.4277,-0.4288,-0.4303,-0.4323,-0.4327,-0.4343,-0.4351,-0.4352,-0.4351,-0.4355,-0.4355,-0.4345,-0.4361,-0.4361,-0.4361,-0.4361,0,-0.4091,-0.4102,-0.413,-0.414,-0.4152,-0.4174,-0.4186,-0.4201,-0.4219,-0.4232,-0.425,-0.4262,-0.4287,-0.4302,-0.4318,-0.4333,-0.4338,-0.4347,-0.4351,-0.4346,-0.4345,-0.4353,-0.4354,-0.4361,-0.4361,-0.4361,-0.4361,0,-0.4078,-0.4097,-0.4115,-0.4142,-0.4149,-0.4157,-0.418,-0.419,-0.4205,-0.4221,-0.4226,-0.425,-0.4268,-0.4289,-0.4315,-0.4325,-0.4339,-0.4345,-0.4331,-0.4334,-0.4333,-0.4333,-0.4329,-0.433,-0.4345,-0.4344,-0.4344,0,-0.4076,-0.4085,-0.4112,-0.4121,-0.4133,-0.4148,-0.4159,-0.418,-0.4191,-0.4215,-0.4222,-0.4241,-0.4257,-0.4285,-0.4305,-0.4324,-0.4331,-0.4328,-0.4334,-0.4328,-0.4331,-0.433,-0.4331,-0.4327,-0.4327,-0.4327,-0.4326,0,-0.407,-0.4079,-0.4094,-0.4113,-0.4125,-0.4141,-0.4158,-0.4164,-0.4188,-0.42,-0.4217,-0.423,-0.4254,-0.4273,-0.4294,-0.4308,-0.4321,-0.4324,-0.4325,-0.432,-0.4312,-0.4316,-0.4327,-0.4324,-0.4325,-0.4325,-0.4325,-0.4325,-0.4063,-0.4071,-0.4091,-0.4107,-0.4121,-0.4136,-0.4146,-0.4162,-0.4177,-0.4198,-0.4209,-0.4226,-0.4246,-0.4276,-0.4289,-0.4303,-0.4307,-0.4309,-0.431,-0.431,-0.4308,-0.4308,-0.4307,-0.4307,-0.4307,-0.4307,-0.4307,0,-0.4058,-0.4071,-0.4086,-0.4107,-0.412,-0.413,-0.4148,-0.4158,-0.4172,-0.4189,-0.4204,-0.4224,-0.4242,-0.4262,-0.4281,-0.4288,-0.4295,-0.4293,-0.4293,-0.4295,-0.4303,-0.43,-0.4287,-0.4287,-0.4287,-0.4287,-0.4287,-0.4287,-0.4057,-0.4071,-0.4082,-0.4103,-0.4116,-0.4132,-0.4142,-0.4155,-0.4169,-0.4189,-0.4203,-0.4216,-0.4235,-0.4255,-0.4271,-0.4277,-0.4283,-0.4279,-0.4286,-0.4293,-0.4295,-0.4297,-0.4294,-0.428,-0.428,-0.4278,-0.4278,-0.4278]}]]